Find Yaogan 36 01 zu 03 xing

NORAD ID: 53947 Int'l Des: 2022-120 Owner: ZZB Country: CN Constellation: yaogan operational
LEOCIRCULAR

Live-Position

3D-Globus wird geladen...

Über Yaogan 36 01 zu 03 xing

Beschreibung wird geladen...

Nächste Überflüge

Passes for default location (London). Set your location on the main map for personalized predictions.

Höhenverlauf

Loading altitude history...

Zweizeiliger Elementsatz

1 53947U 22120E 26106.89809979 .00010111 00000-0 28426-3 0 9998
2 53947 35.0034 271.7148 0004995 315.0060 45.0253 15.35695583198363
Epoch: 16. Apr. 2026 • Age: 8 hours

Aktueller Status

Höhe 462.0 km
Geschwindigkeit 7.64 km/s
Subsatellitenpunkt 34.09°N, 83.11°E
Startdatum 26. Sept. 2022
Alter 3.5 years
Typ military

Technische Details

Klassifizierung Payload
Masse 300.00 kg
Trockenmasse 300.00 kg
Gesamtmasse 300.00 kg
Länge 2.50 m
Durchmesser 2.50 m
Spannweite 5.00 m
Form Box + 2 Pan
Hersteller SAST
Phasenstatus In Orbit
Besitzer/Staat ZZB/CN

Most Searched